This is the latest recevied weather packets stored in our database for station/object EW1958. If no packets are shown the sender has not sent any weather packets the latest 10 day(s).
| Time | Temp. | Humidity | Pressure | Rain* | Wind** | Luminosity | Snow |
|---|---|---|---|---|---|---|---|
| 1777610155 | 14.44° C | 76% | 1019 hPa | 0 mm | - | - | - |
| 1777609855 | 15° C | 75% | 1019 hPa | 0 mm | - | - | - |
| 1777609568 | 15° C | 74% | 1018.9 hPa | 0 mm | - | - | - |
| 1777609407 | 15.56° C | 73% | 1018.9 hPa | 0 mm | - | - | - |
| 1777608648 | 15.56° C | 73% | 1018.9 hPa | 0 mm | - | - | - |
| 1777608345 | 15.56° C | 72% | 1018.8 hPa | 0 mm | - | - | - |
| 1777608042 | 16.11° C | 71% | 1018.8 hPa | 0 mm | - | - | - |
| 1777607742 | 16.11° C | 70% | 1018.7 hPa | 0 mm | - | - | - |
| 1777607439 | 16.11° C | 69% | 1018.7 hPa | 0 mm | - | - | - |
| 1777607139 | 16.67° C | 69% | 1018.6 hPa | 0 mm | - | - | - |
| 1777606966 | 16.67° C | 68% | 1018.6 hPa | 0 mm | - | - | - |
| 1777606691 | 17.22° C | 67% | 1018.6 hPa | 0 mm | - | - | - |
| 1777606536 | 17.22° C | 67% | 1018.6 hPa | 0 mm | - | - | - |
| 1777605936 | 17.78° C | 66% | 1018.5 hPa | 0 mm | - | - | - |
| 1777605639 | 17.78° C | 65% | 1018.5 hPa | 0 mm | - | - | - |
| 1777605461 | 18.33° C | 63% | 1018.5 hPa | 0 mm | - | - | - |
| 1777605033 | 18.33° C | 63% | 1018.5 hPa | 0 mm | - | - | - |
| 1777604891 | 18.33° C | 62% | 1018.5 hPa | 0 mm | - | - | - |
| 1777604886 | 18.89° C | 61% | 1018.5 hPa | 0 mm | - | - | - |
| 1777604124 | 18.89° C | 63% | 1018.6 hPa | 0 mm | - | - | - |
| 1777603956 | 18.89° C | 62% | 1018.4 hPa | 0 mm | - | - | - |
| 1777603552 | 19.44° C | 60% | 1018.5 hPa | 0 mm | - | - | - |
| 1777603396 | 19.44° C | 56% | 1018.6 hPa | 0 mm | - | - | - |
| 1777603386 | 19.44° C | 56% | 1018.6 hPa | 0 mm | - | - | - |
| 1777602320 | 19.44° C | 53% | 1018.6 hPa | 0 mm | - | - | - |
* Rain latest hour (hover to see other rain measurements)
** Current wind speed in m/s (hover to see current wind gust speed)